Location: The D'Auria's Ocala Star Observatory
(29.0276°N, 82.1742°W)
Time: 09:38:04
(UTC-04:00)

Daily predictions for brighter satellites

Satellite Brightness Start Highest point End
(mag) Time Altitude Azimuth Time Altitude Azimuth Time Altitude Azimuth
Cosmos 923 Rocket 4.1 20:37:28 10° S 20:42:44 65° ESE 20:48:00 10° NNE
CENTAUR R/B 3.8 20:35:26 10° NNW 20:42:57 40° NE 20:50:45 10° ESE
Hubble Space Telescope 2.4 20:44:06 10° SSW 20:46:55 18° SSE 20:49:44 10° ESE
Cosmos 1943 Rocket 2.2 20:41:48 10° NNW 20:47:23 82° ENE 20:52:55 10° SSE
Cosmos 2369 Rocket 3.3 20:42:10 10° NNW 20:47:35 47° WSW 20:53:00 10° S
HJ-1C 3.5 20:45:39 10° S 20:49:01 79° WSW 20:52:24 10° NNW
COSMOS 2455 2.9 20:44:20 10° NNW 20:50:20 70° ENE 20:56:18 10° SSE
Cosmos 1709 Rocket 4.0 20:45:29 10° N 20:51:43 73° E 20:57:49 10° S
Cosmos 405 Rocket 2.8 20:56:43 10° S 21:00:21 53° E 21:04:04 10° NNE
Helios 1B rocket 3.0 20:56:57 10° NNE 21:00:46 35° E 21:04:33 10° SSE
Cosmos 1536 Rocket 3.5 20:56:45 10° S 21:01:03 80° E 21:05:22 10° N
Aureole 3 Rocket 4.1 20:55:07 10° SSE 21:01:44 47° E 21:06:31 10° NNE
OAO 2 Rocket 4.4 20:59:26 10° WNW 21:04:05 41° N 21:08:46 10° ENE
ISS -0.7 21:01:53 10° W 21:04:16 18° NW 21:06:37 10° N
Cosmos 1500 3.2 21:00:42 10° N 21:04:27 86° W 21:08:11 10° S
Aureole 1 Rocket 2.3 21:01:21 10° S 21:04:55 59° ESE 21:07:57 10° NNE
Meteor 1-29 3.9 21:02:13 10° NE 21:05:05 26° E 21:07:56 10° SSE
Cosmos 1441 Rocket 4.0 21:04:37 10° SSE 21:07:55 30° E 21:11:14 10° NNE
Meteor 1-19 Rocket 4.3 21:03:52 10° S 21:09:38 67° E 21:15:20 10° NNE
Cosmos 1025 Rocket 4.1 21:11:34 13° SE 21:14:28 25° E 21:17:59 10° NE
Cosmos 2112 Rocket 4.0 21:09:58 10° SSW 21:15:13 87° ESE 21:20:26 10° NNE
USA 186 1.6 21:12:58 10° SSE 21:16:09 76° ENE 21:19:17 10° N
Spot 2 Rocket 3.7 21:17:23 10° S 21:22:24 72° WSW 21:27:26 10° NNW
Cosmos 1544 Rocket 4.4 21:19:12 10° NNW 21:23:24 51° W 21:27:35 10° S
Cosmos 2082 Rocket 3.4 21:25:48 18° ESE 21:27:05 20° E 21:31:03 10° NE
COSMOS 2406 4.4 21:21:56 10° SW 21:27:25 46° WNW 21:32:54 10° N
XTE 4.2 21:25:01 10° WSW 21:27:27 24° S 21:27:55 23° SSE
SL-27 R/B 3.1 21:25:00 10° SSW 21:28:35 61° WNW 21:32:12 10° N
ASTRO E2 2.6 21:27:42 10° WNW 21:31:42 78° SSW 21:33:48 26° ESE
Resurs 1-3 4.4 21:27:40 10° S 21:31:54 50° W 21:36:10 10° NNW
Cosmos 2074 Rocket 4.0 21:27:39 10° N 21:33:53 66° E 21:39:18 14° SSE
SAR-Lupe-4 3.7 21:36:18 29° SE 21:37:51 53° ENE 21:41:21 10° N
Cosmos 2184 Rocket 4.0 21:32:03 10° N 21:38:22 70° E 21:43:31 16° SSE
Aurora 2 Rocket 4.2 21:32:00 10° W 21:38:45 59° S 21:45:03 22° ESE
Spot 1 4.1 21:35:59 21° SSE 21:39:00 67° ENE 21:43:18 10° N
Cosmos 1743 2.8 21:35:40 10° N 21:39:34 78° W 21:42:30 17° S
YAOGAN 6 3.2 21:43:14 33° E 21:43:47 36° ENE 21:47:01 10° N
Envisat 3.0 21:40:37 16° SSE 21:44:41 88° W 21:49:47 10° NNW
GPS 2-14 Rocket1 4.0 21:44:16 10° SW 21:47:09 23° S 21:47:09 23° S
Resurs 01 Rocket 3.5 21:44:24 10° SSW 21:48:10 27° W 21:51:56 10° NW
SAR-Lupe-1 3.9 21:53:08 45° SSE 21:54:08 78° ENE 21:57:42 10° N
Nadezhda 1 Rocket 4.2 21:51:42 10° S 21:58:01 75° W 22:04:25 10° N
Cosmos 1666 2.9 21:55:50 10° NNW 21:59:32 65° W 22:01:04 32° SSW
Cosmos 1833 Rocket 3.1 22:01:02 36° SE 22:02:05 39° ESE 22:07:16 10° NE
Meteor 2-9 Rocket 4.1 21:57:12 10° N 22:02:46 84° E 22:05:45 29° S
Cosmos 1939 Rocket 3.3 22:03:01 30° SSW 22:04:41 56° W 22:08:29 10° NNW
COSMOS 2487 3.0 22:10:54 45° NE 22:10:54 45° NE 22:13:34 10° NNE
Cosmos 405 2.9 22:07:18 10° N 22:10:51 81° W 22:11:00 78° SW
Helios 1A 4.1 22:08:35 20° SSW 22:11:01 40° W 22:15:00 10° NNW
Cosmos 1437 Rocket 2.9 22:13:51 10° N 22:17:17 57° NE 22:17:17 57° NE
SPOT 5 3.6 22:18:47 32° ENE 22:18:47 32° ENE 22:22:12 10° N
ERS-1 Rocket 2.8 22:21:27 54° SSE 22:22:37 86° ENE 22:27:38 10° NNW
Cosmos 2154 Rocket 3.9 22:16:17 10° N 22:22:39 85° E 22:25:08 40° S
Cosmos 2228 4.5 22:20:07 10° NNE 22:22:37 25° NE 22:22:37 25° NE
Cosmos 1515 3.8 22:25:11 73° NNW 22:25:11 73° NNW 22:28:42 10° N
Cosmos 921 Rocket 3.9 22:21:16 10° N 22:24:47 36° NE 22:24:47 36° NE
Hubble Space Telescope 2.2 22:23:46 10° WSW 22:25:49 27° SW 22:25:49 27° SW
Cosmos 1371 Rocket 3.9 22:22:40 10° NNW 22:27:59 90° WSW 22:28:55 62° SSE
Cosmos 1892 Rocket 3.7 22:32:13 63° SW 22:32:46 71° W 22:37:10 10° N
CENTAUR R/B 4.0 22:26:08 10° NW 22:33:43 42° WSW 22:38:41 22° SSW
SL-24 DEB 4.4 22:34:54 57° NE 22:34:54 57° NE 22:38:58 10° N
ARGOS 3.0 22:39:41 67° E 22:39:58 69° ENE 22:45:22 10° N
Cosmos 1980 Rocket 4.3 22:38:28 10° NNE 22:41:05 13° ENE 22:41:05 13° ENE
SL-08 RB Rocket 4.3 22:44:22 46° NNE 22:44:22 46° NNE 22:47:48 10° N
OAO 2 Rocket 3.6 22:44:26 10° WNW 22:49:18 59° NNE 22:49:22 59° NNE
Cosmos 1606 Rocket 4.2 22:46:36 10° NNW 22:50:29 52° WNW 22:50:29 52° WNW
NOAA 11 4.4 22:50:42 56° SW 22:51:28 63° W 22:56:51 10° NNW
Timation 2 Rocket 3.8 22:52:15 72° SE 22:52:38 75° ESE 22:58:52 10° NNE
Cosmos 2341 Rocket 4.2 22:50:44 10° N 22:57:03 69° W 22:58:25 54° SSW
MetOp-B 4.4 22:57:15 58° WSW 22:57:39 60° W 23:02:56 10° NNW
Cosmos 1726 Rocket 4.5 22:55:57 10° NNW 22:59:25 45° WNW 22:59:25 45° WNW
Cosmos 2218 Rocket 4.0 23:00:45 10° N 23:06:29 66° ENE 23:06:29 66° ENE
H-2A R/B 2.5 23:09:14 54° N 23:09:14 54° N 23:13:06 10° N
Cosmos 2082 Rocket 3.3 23:07:29 21° SW 23:10:46 41° WNW 23:16:05 10° N
Mugunghwa Rocket 4.2 23:04:42 10° W 23:12:59 75° S 23:13:12 75° SSE
Cosmos 2058 Rocket 4.5 23:13:14 10° NNW 23:16:19 36° NW 23:16:19 36° NW
Cosmos 2278 4.0 23:13:11 10° NNW 23:18:12 62° WNW 23:18:12 62° WNW
H-2A R/B 4.0 23:32:00 27° N 23:32:00 27° N 23:34:06 10° N
Cosmos 1697 Rocket 3.4 23:31:14 10° NNW 23:35:16 49° N 23:35:16 49° N
SL-16 R/B 4.4 23:41:22 10° NNE 23:43:34 15° NE 23:43:34 15° NE
Terra 3.6 23:51:09 29° NNW 23:51:09 29° NNW 23:53:31 10° NNW
